Вернуться в каталог

STARLINK-1008

АктивенСвязьVLEO
NORAD 44714·PAYLOAD·🇺🇸 United States

Запущен Nov 11, 2019 с Cape Canaveral Space Force Station

Loading…

Ближайшие Пролёты (ближайшие 24 часа)

TLE

СвежийSource: CelesTrak SupGP

Эпоха: Sep 14, 2026, 19:21 UTC

1 44714C 19074B   26257.80673611  .00039508  00000+0  39876-3 0  2572
2 44714  53.1471 354.8764 0002159  70.9806 155.6906 15.64682999    19

Отслеживайте STARLINK-1008 в реальном времени с AllMySat

Download on the App Store